Skip Page Navigation
NASA JPL Caltech
NASA Logo - Jet Propulsion Laboratory + View the NASA Portal
+ Center for Near-Earth Object Studies
JPL Home Earth Solar System Stars & Galaxies Technology
JPL Solar System Dynamics
BODIES ORBITS EPHEMERIDES TOOLS PHYSICAL DATA DISCOVERY FAQ SITE MAP

Significant website upgrade scheduled for September 27. More details available here.

JPL Small-Body Database Browser
Search: [ help ]  
(2020 JS1)
Classification: Amor [NEO]          SPK-ID: 54017013
Ephemeris | Orbit Diagram | Orbital Elements | Mission Design | Physical Parameters | Close-Approach Data ]

[ hide orbit diagram ]

For accurate long-term ephemerides, please instead use our Horizons system.This orbit viewer was implemented using two-body methods, and hence should not be used for determining accurate long-term trajectories (over several years or decades) or planetary encounter circumstances.


Orbital Elements at Epoch 2458982.5 (2020-May-13.0) TDB
Reference: JPL 2 (heliocentric ecliptic J2000)
 Element Value Uncertainty (1-sigma)   Units 
e .3280566396161947 0.012911  
a 1.531610381185625 0.021067 au
q 1.02915542633259 0.005729 au
i .3244232266055632 0.017882 deg
node 100.2416605272376 3.3212 deg
peri 175.8595580553324 4.4604 deg
M 337.6146686681291 0.12758 deg
tp 2459025.550867281598
(2020-Jun-25.05086728)
0.71707 TDB
period 692.3423196917227
1.90
14.284
0.03911
d
yr
n .5199739922879425 0.010728 deg/d
Q 2.03406533603866 0.027978 au
  Orbit Determination Parameters
   # obs. used (total)      8  
   data-arc span      1 day  
   first obs. used      2020-05-13  
   last obs. used      2020-05-14  
   planetary ephem.      DE441  
   SB-pert. ephem.      SB441-N16  
   condition code      9  
   norm. resid. RMS      .32334  
   source      ORB  
   producer      Otto Matic  
   solution date      2021-Apr-15 22:31:57  

Additional Information
 Earth MOID = .0123909 au 
 Jupiter MOID = 3.09561 au 
 T_jup = 4.422 
[ show covariance matrix ]

Ephemeris | Orbit Diagram | Orbital Elements | Mission Design | Physical Parameters | Close-Approach Data ]

Physical Parameter Table
Parameter Symbol Value Units Sigma Reference Notes
absolute magnitude H 26.0   .62873 MPO545541 autocmod 2.8

[ show close-approach data ]
Ephemeris | Orbit Diagram | Orbital Elements | Mission Design | Physical Parameters | Close-Approach Data ]
ABOUT SSD CREDITS/AWARDS PRIVACY/COPYRIGHT GLOSSARY LINKS
FirstGov 2021-Sep-18 06:05 UT
(server date/time)  
NASA Home Page
Site Manager:   Ryan S. Park
Webmaster  Alan B. Chamberlin